[[{"header":{"parameterUnit":"m.s-1","parameterCategory":1,"la1":30.2991,"la2":30.254,"lo1":-89.0895,"lo2":-89.0444,"dy":0.0017,"dx":0.0017,"nx":28,"ny":28,"refTime":"2024-03-23T09:00:00:Z","depth":0,"parameterNumber":2,"parameterNumberName":"U-component_of_WINDS"},"data":[0,0,0,0,0,0,0,0,0,0,0,0,0,0,0,0,0,0,0,0,0,0,0,0,0,0,0,0,0,0,0,0,0,0,0,0,0,0,0,0,0,0,0,0,0,0,0,0,0,0,0,0,0,0,0,0,0,0,-5.1553,-5.1553,0,-5.1544,-5.1544,-5.1544,-5.1421,-5.1418,-5.1415,-5.1412,-5.1404,-5.1407,-5.1409,0,0,0,0,0,0,0,0,0,0,0,0,0,-5.1465,-5.1468,-5.1553,-5.1553,-5.1553,-5.1544,-5.1544,-5.1544,-5.1422,-5.1418,-5.1414,-5.141,-5.1403,-5.1406,-5.141,0,0,0,0,0,0,0,0,0,0,0,0,0,-5.1485,-5.1468,-5.1553,-5.1491,-5.1485,-5.1544,-5.1544,-5.1544,-5.1422,-5.1418,-5.1413,-5.1409,-5.1402,-5.1406,-5.141,-5.1528,0,0,-5.1422,-5.1424,0,0,0,0,0,0,0,0,-5.1484,-5.1488,-5.15,-5.1495,-5.1489,-5.1479,-5.151,-5.1539,-5.1424,-5.1446,-5.1412,-5.1406,-5.1433,-5.1434,-5.1443,-5.1528,-5.1528,-5.1423,-5.1425,-5.1427,-5.1428,0,0,0,0,0,0,0,-5.1483,-5.1488,-5.1549,-5.15,-5.1494,-5.1464,-5.1461,-5.1515,-5.1466,-5.1444,-5.1435,-5.1436,-5.1429,-5.1439,-5.1442,-5.1528,-5.1423,-5.1426,-5.1429,-5.143,-5.171,-5.1715,0,0,0,0,0,0,-5.149,-5.1487,-5.155,-5.1549,-5.1475,-5.1469,-5.1466,-5.1487,-5.1465,-5.1457,-5.144,-5.143,-5.1434,-5.1437,-5.1441,-5.1578,-5.1427,-5.1431,-5.1433,-5.1705,-5.1711,-5.1717,0,0,0,0,0,0,-5.1488,-5.1496,-5.155,-5.1516,-5.152,-5.1475,-5.15,-5.1489,-5.1499,-5.1462,-5.1452,-5.1459,-5.1431,-5.1435,-5.1507,-5.1576,-5.1432,-5.1436,-5.1699,-5.1707,-5.1714,-5.1854,0,0,0,0,0,0,-5.1486,-5.1497,-5.1541,-5.1518,-5.1523,-5.1617,-5.1504,-5.1492,-5.1506,-5.1493,-5.1477,-5.147,-5.1428,-5.1502,-5.1512,-5.1579,-5.1439,-5.1693,-5.1703,-5.1711,-5.1843,-5.1865,-5.1884,0,0,0,0,0,-5.1484,-5.1581,-5.1544,-5.1552,-5.1577,-5.1621,-5.1624,-5.1572,-5.1512,-5.1556,-5.1532,-5.1471,-5.1567,-5.1511,-5.152,-5.159,-5.1688,-5.17,-5.1711,-5.1833,-5.1861,-5.1883,0,0,0,0,0,0,-5.1613,-5.1576,-5.1535,-5.1628,-5.1628,-5.16,-5.1654,-5.1603,-5.1621,-5.1608,-5.1544,-5.1542,-5.1624,-5.1614,-5.1552,-5.1703,-5.1617,-5.1631,-5.1707,-5.1732,-5.1753,-5.1753,-5.1443,0,0,0,0,0,-5.1653,-5.1691,-5.1657,-5.1742,-5.1744,-5.17,-5.1717,-5.1678,-5.1676,-5.1676,-5.1657,-5.1658,-5.1688,-5.171,-5.1736,-5.1841,-5.1836,-5.1893,-5.1914,-5.1931,-5.1944,-5.1999,-5.2024,-5.1754,-5.1753,-5.1753,0,0,-5.1734,-5.1719,-5.1747,-5.1768,-5.1764,-5.1805,-5.1701,-5.1749,-5.178,-5.1683,-5.175,-5.1737,-5.1734,-5.1823,-5.1862,-5.1817,-5.2018,-5.1946,-5.196,-5.1963,-5.2013,-5.2039,-5.2062,-5.1761,-5.176,-5.1759,0,0,-5.1904,-5.1897,-5.1966,-5.1965,-5.196,-5.1929,-5.1947,-5.1927,-5.1914,-5.198,-5.1908,-5.1944,-5.1998,-5.1999,-5.2006,-5.2178,-5.2122,-5.2188,-5.2296,-5.2351,-5.2372,-5.2391,-5.2452,-5.2475,-5.2201,-5.2201,-5.2202,0,-5.2006,-5.2066,-5.2009,-5.2062,-5.2074,-5.1988,-5.2059,-5.206,-5.2064,-5.2074,-5.2024,-5.209,-5.2082,-5.2171,-5.2213,-5.2222,-5.2239,-5.2189,-5.2373,-5.2391,-5.2408,-5.2466,-5.2489,-5.2209,-5.2208,-5.2208,-5.2207,0,-5.2192,-5.2234,-5.2291,-5.2297,-5.2315,-5.2377,-5.233,-5.2355,-5.2314,-5.229,-5.2359,-5.2346,-5.2368,-5.2386,-5.2347,-5.247,-5.2443,-5.2385,-5.2296,-5.2443,-5.2496,-5.2518,-5.2221,-5.2218,-5.2216,-5.2214,0,0,-5.2442,-5.2417,-5.2438,-5.244,-5.2429,-5.2461,-5.2519,-5.2541,-5.2563,-5.257,-5.2617,-5.2665,-5.2611,-5.262,-5.258,-5.2628,-5.2765,-5.2564,-5.2563,-5.2602,-5.29,-5.2944,-5.297,-5.2728,-5.2732,-5.2735,-5.29,0,-5.2606,-5.2703,-5.2654,-5.2758,-5.2797,-5.2717,-5.2768,-5.2767,-5.2746,-5.2776,-5.2752,-5.2787,-5.2713,-5.2718,-5.2762,-5.2739,-5.2824,-5.2727,-5.2772,-5.2774,-5.2775,-5.2998,-5.3044,-5.32,-5.292,-5.2924,-5.2926,0,-5.281,-5.2824,-5.2932,-5.2914,-5.2929,-5.2975,-5.2991,-5.3021,-5.3018,-5.3,-5.301,-5.2959,-5.3016,-5.2929,-5.3006,-5.2941,-5.2957,-5.2949,-5.2953,-5.2955,-5.2859,-5.3006,-5.3248,-5.3272,-5.2959,-5.2956,-5.2954,0,-5.2982,-5.3029,-5.3099,-5.3103,-5.3084,-5.3119,-5.3112,-5.3105,-5.3121,-5.3135,-5.3145,-5.3166,-5.3178,-5.3196,-5.3152,-5.3093,-5.3236,-5.3145,-5.3222,-5.3223,-5.3255,-5.3254,-5.3504,-5.3266,-5.3266,-5.3266,-5.3265,0,-5.317,-5.3239,-5.3176,-5.3219,-5.3295,-5.3238,-5.3314,-5.3299,-5.3294,-5.3333,-5.3266,-5.3304,-5.3244,-5.3278,-5.3244,-5.3313,-5.3319,-5.3306,-5.3296,-5.3312,-5.3314,-5.3321,-5.3309,-5.3272,-5.327,-5.3269,-5.3268,0,-5.3374,-5.3335,-5.3406,-5.3382,-5.3378,-5.3435,-5.3414,-5.3454,-5.3428,-5.3479,-5.3488,-5.3448,-5.3483,-5.3442,-5.3474,-5.3451,-5.3545,-5.352,-5.3546,-5.3539,-5.3618,-5.3611,-5.3881,-5.3914,-5.3656,-5.3659,-5.3661,0,-5.3496,-5.3547,-5.3529,-5.3551,-5.3548,-5.3584,-5.36,-5.3547,-5.3566,-5.3568,-5.3608,-5.3637,-5.3658,-5.3718,-5.3692,-5.3717,-5.3691,-5.3784,-5.3694,-5.3709,-5.3692,-5.369,-5.3695,-5.3802,-5.3805,-5.3808,-5.381,0,-5.3717,-5.3695,-5.3721,-5.3741,-5.3762,-5.3775,-5.3782,-5.3804,-5.3748,-5.3774,-5.3809,-5.3826,-5.3858,-5.3889,-5.3906,-5.39,-5.3847,-5.3839,-5.3858,-5.3874,-5.3887,-5.3881,-5.3596,-5.3833,-5.383,-5.3829,-5.3827,-5.3827,-5.3884,-5.3926,-5.392,-5.3951,-5.3951,-5.396,-5.3996,-5.3975,-5.4003,-5.4025,-5.3992,-5.4037,-5.4033,-5.4051,-5.4051,-5.4085,-5.4045,-5.4073,-5.408,-5.4088,-5.41,-5.3882,-5.4088,-5.4088,-5.4087,-5.4087,-5.4086,0,-5.4101,-5.4093,-5.4122,-5.4135,-5.416,-5.4107,-5.4114,-5.4138,-5.4177,-5.4179,-5.4201,-5.4242,-5.4271,-5.4248,-5.4273,-5.4305,-5.4281,-5.4313,-5.431,-5.431,-5.4134,-5.4115,-5.4332,-5.4332,-5.4332,-5.4332,-5.4332,-5.4332,-5.4217,-5.4285,-5.4263,-5.4331,-5.4322,-5.4365,-5.4373,-5.4381,-5.4382,-5.4431,-5.4455,-5.4439,-5.4431,-5.4455,-5.448,-5.4472,-5.4485,-5.4526,-5.451,-5.4346,-5.4322,-5.4299,-5.428,-5.4529,-5.4529,-5.4682,-5.4684,-5.4685]},{"header":{"parameterUnit":"m.s-1","parameterCategory":1,"la1":30.2991,"la2":30.254,"lo1":-89.0895,"lo2":-89.0444,"dy":0.0017,"dx":0.0017,"nx":28,"ny":28,"refTime":"2024-03-23T09:00:00:Z","depth":0,"parameterNumber":3,"parameterNumberName":"V-component_of_WINDS"},"data":[0,0,0,0,0,0,0,0,0,0,0,0,0,0,0,0,0,0,0,0,0,0,0,0,0,0,0,0,0,0,0,0,0,0,0,0,0,0,0,0,0,0,0,0,0,0,0,0,0,0,0,0,0,0,0,0,0,0,-0.4567,-0.4567,0,-0.4596,-0.4596,-0.4597,-0.4597,-0.4596,-0.4596,-0.4596,-0.4626,-0.4627,-0.4629,0,0,0,0,0,0,0,0,0,0,0,0,0,-0.4512,-0.4513,-0.4567,-0.4567,-0.4568,-0.4596,-0.4596,-0.4597,-0.4597,-0.4596,-0.4596,-0.4596,-0.4626,-0.4627,-0.4629,0,0,0,0,0,0,0,0,0,0,0,0,0,-0.4538,-0.4513,-0.4567,-0.4571,-0.4572,-0.4596,-0.4596,-0.4597,-0.4597,-0.4596,-0.4596,-0.4595,-0.4625,-0.4627,-0.4629,-0.4651,0,0,-0.4634,-0.4635,0,0,0,0,0,0,0,0,-0.4536,-0.454,-0.457,-0.4571,-0.4572,-0.4592,-0.4588,-0.4615,-0.4597,-0.4588,-0.4596,-0.4595,-0.4615,-0.4618,-0.4625,-0.4652,-0.4653,-0.4634,-0.4635,-0.4636,-0.4637,0,0,0,0,0,0,0,-0.4535,-0.4539,-0.4579,-0.4571,-0.4572,-0.4572,-0.4575,-0.4593,-0.4604,-0.4588,-0.4588,-0.4592,-0.4616,-0.4623,-0.4625,-0.4654,-0.4634,-0.4636,-0.4637,-0.4638,-0.4699,-0.4699,0,0,0,0,0,0,-0.4532,-0.4537,-0.4578,-0.4579,-0.4552,-0.4573,-0.4576,-0.4586,-0.4604,-0.4606,-0.4592,-0.4592,-0.462,-0.4623,-0.4626,-0.4652,-0.4636,-0.4638,-0.4639,-0.4698,-0.4699,-0.4699,0,0,0,0,0,0,-0.4531,-0.4535,-0.4576,-0.4558,-0.4563,-0.4575,-0.4586,-0.4587,-0.4594,-0.4607,-0.4609,-0.4597,-0.462,-0.4624,-0.4644,-0.4653,-0.4639,-0.464,-0.4697,-0.4698,-0.4699,-0.4704,0,0,0,0,0,0,-0.4529,-0.4535,-0.4544,-0.4558,-0.4564,-0.4594,-0.4586,-0.4588,-0.4597,-0.4597,-0.4613,-0.4615,-0.462,-0.4642,-0.4646,-0.4655,-0.4641,-0.4697,-0.4698,-0.4699,-0.4703,-0.4705,-0.4707,0,0,0,0,0,-0.4527,-0.4545,-0.4544,-0.4549,-0.4575,-0.4594,-0.4598,-0.4603,-0.4598,-0.4606,-0.4614,-0.4614,-0.4651,-0.4644,-0.4648,-0.4659,-0.4696,-0.4698,-0.4699,-0.4703,-0.4705,-0.4707,0,0,0,0,0,0,-0.4532,-0.4547,-0.4546,-0.4569,-0.458,-0.4594,-0.4606,-0.4606,-0.4619,-0.4618,-0.4624,-0.4628,-0.4648,-0.4655,-0.4646,-0.468,-0.4673,-0.4675,-0.4674,-0.4676,-0.4678,-0.4676,-0.4643,0,0,0,0,0,-0.4535,-0.4549,-0.4562,-0.458,-0.4586,-0.4595,-0.4603,-0.4606,-0.4618,-0.4623,-0.4632,-0.4644,-0.4658,-0.4668,-0.4682,-0.4704,-0.4707,-0.4713,-0.4715,-0.4716,-0.4718,-0.4729,-0.4732,-0.4704,-0.4704,-0.4704,0,0,-0.4543,-0.4553,-0.4562,-0.4582,-0.4591,-0.4605,-0.4599,-0.4614,-0.4625,-0.4626,-0.4645,-0.4652,-0.4665,-0.4686,-0.4696,-0.4693,-0.4727,-0.4718,-0.4719,-0.472,-0.4731,-0.4734,-0.4736,-0.4705,-0.4705,-0.4704,0,0,-0.4564,-0.4573,-0.4589,-0.4598,-0.4611,-0.4616,-0.462,-0.4634,-0.4638,-0.4657,-0.4658,-0.467,-0.4695,-0.4704,-0.4712,-0.4734,-0.4734,-0.4738,-0.4748,-0.4758,-0.476,-0.4762,-0.477,-0.4772,-0.474,-0.474,-0.474,0,-0.4572,-0.4593,-0.4598,-0.4613,-0.4621,-0.4621,-0.4637,-0.4645,-0.4663,-0.4668,-0.4665,-0.4694,-0.4704,-0.4726,-0.4731,-0.4738,-0.4742,-0.4737,-0.476,-0.4762,-0.4764,-0.4771,-0.4773,-0.4741,-0.4741,-0.4741,-0.4741,0,-0.4602,-0.4617,-0.4628,-0.4643,-0.4653,-0.4669,-0.4675,-0.4684,-0.4685,-0.4691,-0.4709,-0.472,-0.4736,-0.4741,-0.4743,-0.4763,-0.4761,-0.4758,-0.4752,-0.4767,-0.4773,-0.4776,-0.4741,-0.4741,-0.4741,-0.4741,0,0,-0.4629,-0.4645,-0.4649,-0.4655,-0.4669,-0.468,-0.4695,-0.4709,-0.4716,-0.4728,-0.474,-0.476,-0.4757,-0.4766,-0.4769,-0.4778,-0.4793,-0.4774,-0.4774,-0.4777,-0.4815,-0.4817,-0.482,-0.4793,-0.4794,-0.4794,-0.4814,0,-0.4651,-0.4677,-0.468,-0.4703,-0.4716,-0.4715,-0.4728,-0.4737,-0.4742,-0.4754,-0.476,-0.4773,-0.4769,-0.4774,-0.4783,-0.479,-0.4801,-0.4788,-0.4805,-0.4805,-0.4801,-0.4824,-0.4826,-0.4844,-0.4817,-0.4817,-0.4817,0,-0.4681,-0.4692,-0.4716,-0.4726,-0.4731,-0.4743,-0.4755,-0.4766,-0.4776,-0.4779,-0.4788,-0.4789,-0.4804,-0.4796,-0.4816,-0.4807,-0.4814,-0.4818,-0.4819,-0.4821,-0.4812,-0.4826,-0.485,-0.4853,-0.4822,-0.4821,-0.4821,0,-0.4697,-0.4717,-0.4734,-0.474,-0.4752,-0.476,-0.4766,-0.4775,-0.4783,-0.4794,-0.4799,-0.4811,-0.4818,-0.4828,-0.4832,-0.4826,-0.4851,-0.4844,-0.4854,-0.4854,-0.486,-0.4859,-0.4885,-0.4864,-0.4864,-0.4864,-0.4864,0,-0.4721,-0.4736,-0.4741,-0.4752,-0.4767,-0.477,-0.4786,-0.4791,-0.48,-0.4811,-0.4811,-0.4821,-0.4826,-0.4837,-0.4841,-0.4856,-0.4859,-0.4862,-0.4863,-0.4862,-0.4861,-0.4867,-0.4865,-0.4865,-0.4865,-0.4864,-0.4864,0,-0.4742,-0.4746,-0.4764,-0.4774,-0.4777,-0.4788,-0.4796,-0.4806,-0.481,-0.4823,-0.4827,-0.4834,-0.4846,-0.4851,-0.4867,-0.4869,-0.4887,-0.4887,-0.4883,-0.4884,-0.4893,-0.4892,-0.4923,-0.4927,-0.4903,-0.4903,-0.4903,0,-0.4757,-0.4768,-0.4779,-0.4785,-0.4791,-0.4803,-0.481,-0.4813,-0.4821,-0.4832,-0.484,-0.4852,-0.4863,-0.4883,-0.4889,-0.4901,-0.4901,-0.4911,-0.4903,-0.4901,-0.49,-0.49,-0.49,-0.4912,-0.4913,-0.4913,-0.4913,0,-0.4784,-0.4785,-0.4796,-0.4806,-0.4815,-0.4824,-0.4832,-0.4838,-0.4842,-0.485,-0.4863,-0.4871,-0.4886,-0.4898,-0.4909,-0.4915,-0.4915,-0.4915,-0.4918,-0.4917,-0.4915,-0.4916,-0.4887,-0.4915,-0.4915,-0.4915,-0.4914,-0.4914,-0.4802,-0.4811,-0.4819,-0.4831,-0.4837,-0.4844,-0.4853,-0.4858,-0.4868,-0.488,-0.4881,-0.4895,-0.4903,-0.4919,-0.4925,-0.4935,-0.4932,-0.4936,-0.4937,-0.4938,-0.4939,-0.4913,-0.4937,-0.4937,-0.4937,-0.4937,-0.4937,0,-0.4828,-0.4833,-0.4843,-0.4854,-0.4863,-0.486,-0.4869,-0.4877,-0.4888,-0.4896,-0.4905,-0.4918,-0.493,-0.4936,-0.4947,-0.4954,-0.4954,-0.4957,-0.4957,-0.4958,-0.4941,-0.4937,-0.4957,-0.4957,-0.4957,-0.4957,-0.4957,-0.4957,-0.4843,-0.4858,-0.4859,-0.4877,-0.4881,-0.4894,-0.4899,-0.4905,-0.4911,-0.4926,-0.4935,-0.4939,-0.4946,-0.4957,-0.4967,-0.4969,-0.4973,-0.4976,-0.4977,-0.4961,-0.4959,-0.4957,-0.4954,-0.4977,-0.4977,-0.4993,-0.4993,-0.4993]}]]